| time (UTC) | temp C | wind direction | speed KPH | gust KPH | rain 1hr cm | rain 24hr cm | rain mn cm | humidity % | barometer mb |
| 20260510073054 | 3 | 304 | 0.0 | 8.0 | 0.00 | 0.00 | 0.00 | 71 | 1014.3 |
| 20260510071557 | 3 | 278 | 3.2 | 11.3 | 0.00 | 0.00 | 0.00 | 71 | 1014.3 |
| 20260510070053 | 3 | 323 | 1.6 | 11.3 | 0.00 | 0.00 | 0.00 | 70 | 1014.3 |
| 20260510064552 | 3 | 272 | 1.6 | 12.9 | 0.00 | 0.00 | 0.00 | 68 | 1014.2 |
| 20260510063052 | 3 | 257 | 4.8 | 11.3 | 0.00 | 0.00 | 0.00 | 67 | 1014.2 |
| 20260510061553 | 4 | 279 | 0.0 | 12.9 | 0.00 | 0.00 | 0.00 | 65 | 1014.3 |
| 20260510060053 | 4 | 291 | 1.6 | 12.9 | 0.00 | 0.00 | 0.00 | 64 | 1014.1 |
| 20260510054555 | 4 | 55 | 1.6 | 6.4 | 0.00 | 0.00 | 0.00 | 64 | 1014.0 |
| 20260510053056 | 4 | 288 | 4.8 | 12.9 | 0.00 | 0.00 | 0.00 | 64 | 1013.8 |
| 20260510051555 | 4 | 299 | 1.6 | 11.3 | 0.00 | 0.00 | 0.00 | 63 | 1013.7 |
| 20260510050054 | 4 | 0 | 1.6 | 9.7 | 0.00 | 0.00 | 0.00 | 62 | 1013.6 |
| 20260510044552 | 4 | 0 | 1.6 | 9.7 | 0.00 | 0.00 | 0.00 | 61 | 1013.6 |
| 20260510043100 | 4 | 266 | 1.6 | 6.4 | 0.00 | 0.00 | 0.00 | 62 | 1013.6 |
| 20260510041551 | 4 | 0 | 1.6 | 11.3 | 0.00 | 0.00 | 0.00 | 60 | 1013.5 |
| 20260510040053 | 3 | 0 | 0.0 | 4.8 | 0.00 | 0.00 | 0.00 | 61 | 1013.4 |
| 20260510034556 | 3 | 298 | 0.0 | 3.2 | 0.00 | 0.00 | 0.00 | 61 | 1013.2 |
| 20260510033112 | 3 | 299 | 0.0 | 9.7 | 0.00 | 0.00 | 0.00 | 61 | 1013.2 |
| 20260510031558 | 3 | 0 | 0.0 | 1.6 | 0.00 | 0.00 | 0.00 | 62 | 1013.2 |
| 20260510030052 | 3 | 0 | 0.0 | 3.2 | 0.00 | 0.00 | 0.00 | 61 | 1012.9 |
| 20260510024556 | 3 | 0 | 0.0 | 3.2 | 0.00 | 0.00 | 0.00 | 60 | 1013.0 |
| 20260510023053 | 3 | 236 | 0.0 | 4.8 | 0.00 | 0.00 | 0.00 | 58 | 1012.9 |
| 20260510021551 | 4 | 0 | 0.0 | 3.2 | 0.00 | 0.00 | 0.00 | 56 | 1012.6 |
| 20260510020053 | 5 | 0 | 0.0 | 3.2 | 0.00 | 0.00 | 0.00 | 55 | 1012.5 |
| 20260510014551 | 5 | 0 | 1.6 | 9.7 | 0.00 | 0.00 | 0.00 | 54 | 1012.3 |
| 20260510013055 | 5 | 277 | 0.0 | 6.4 | 0.00 | 0.00 | 0.00 | 52 | 1012.1 |
| 20260510011559 | 6 | 259 | 1.6 | 11.3 | 0.00 | 0.00 | 0.00 | 52 | 1011.8 |
| 20260510010052 | 6 | 173 | 3.2 | 11.3 | 0.00 | 0.00 | 0.00 | 51 | 1011.9 |
| 20260510004556 | 6 | 261 | 4.8 | 14.5 | 0.00 | 0.00 | 0.00 | 49 | 1011.5 |
| 20260510003116 | 7 | 148 | 4.8 | 24.1 | 0.00 | 0.00 | 0.00 | 48 | 1011.7 |
| 20260510001556 | 7 | 323 | 4.8 | 22.5 | 0.00 | 0.00 | 0.00 | 47 | 1011.3 |
| 20260509234603 | 7 | 344 | 8.0 | 20.9 | 0.00 | 0.00 | 0.00 | 46 | 1011.3 |
| 20260509233050 | 7 | 15 | 4.8 | 22.5 | 0.00 | 0.00 | 0.00 | 46 | 1011.1 |
| 20260509231555 | 8 | 0 | 4.8 | 27.4 | 0.00 | 0.00 | 0.00 | 45 | 1010.8 |
| 20260509230057 | 8 | 336 | 9.7 | 22.5 | 0.00 | 0.00 | 0.00 | 44 | 1010.7 |
| 20260509224553 | 7 | 63 | 8.0 | 24.1 | 0.00 | 0.00 | 0.00 | 45 | 1010.9 |
| 20260509223050 | 7 | 36 | 8.0 | 30.6 | 0.00 | 0.00 | 0.00 | 45 | 1010.7 |
| 20260509221555 | 8 | 14 | 4.8 | 19.3 | 0.00 | 0.00 | 0.00 | 46 | 1010.5 |
| 20260509220057 | 8 | 11 | 8.0 | 25.7 | 0.00 | 0.00 | 0.00 | 44 | 1010.2 |
| 20260509214558 | 8 | 15 | 4.8 | 22.5 | 0.00 | 0.00 | 0.00 | 47 | 1010.2 |
| 20260509213059 | 8 | 273 | 8.0 | 20.9 | 0.00 | 0.00 | 0.00 | 47 | 1010.0 |
| 20260509211601 | 8 | 265 | 3.2 | 16.1 | 0.00 | 0.00 | 0.00 | 46 | 1009.7 |
| 20260509210101 | 8 | 343 | 8.0 | 24.1 | 0.00 | 0.00 | 0.00 | 43 | 1009.5 |
| 20260509204554 | 8 | 333 | 8.0 | 27.4 | 0.00 | 0.00 | 0.00 | 45 | 1009.3 |
| 20260509203052 | 8 | 294 | 6.4 | 22.5 | 0.00 | 0.00 | 0.00 | 44 | 1009.1 |
| 20260509201552 | 8 | 315 | 11.3 | 25.7 | 0.00 | 0.00 | 0.00 | 43 | 1008.9 |
| 20260509200057 | 9 | 237 | 6.4 | 20.9 | 0.00 | 0.00 | 0.00 | 43 | 1008.8 |
| 20260509194552 | 8 | 146 | 6.4 | 29.0 | 0.00 | 0.00 | 0.00 | 44 | 1008.6 |
| 20260509193053 | 9 | 350 | 4.8 | 27.4 | 0.00 | 0.00 | 0.00 | 43 | 1008.6 |
| 20260509191550 | 8 | 37 | 8.0 | 24.1 | 0.00 | 0.00 | 0.00 | 45 | 1008.6 |
| 20260509190051 | 8 | 342 | 8.0 | 22.5 | 0.00 | 0.00 | 0.00 | 45 | 1008.4 |
| 20260509184556 | 8 | 333 | 12.9 | 24.1 | 0.00 | 0.00 | 0.00 | 45 | 1008.1 |
| 20260509183137 | 8 | 350 | 8.0 | 19.3 | 0.00 | 0.00 | 0.00 | 47 | 1008.4 |
| 20260509181612 | 7 | 341 | 6.4 | 17.7 | 0.00 | 0.00 | 0.00 | 48 | 1008.1 |
| 20260509180101 | 6 | 29 | 8.0 | 29.0 | 0.00 | 0.00 | 0.00 | 51 | 1008.2 |
| 20260509174556 | 6 | 323 | 11.3 | 33.8 | 0.00 | 0.00 | 0.00 | 47 | 1008.0 |
| 20260509173058 | 6 | 270 | 9.7 | 25.7 | 0.00 | 0.00 | 0.00 | 50 | 1008.1 |
| 20260509171559 | 6 | 287 | 6.4 | 19.3 | 0.00 | 0.00 | 0.00 | 49 | 1007.9 |
| 20260509170055 | 7 | 17 | 6.4 | 24.1 | 0.00 | 0.00 | 0.00 | 47 | 1007.8 |
| 20260509164600 | 6 | 280 | 6.4 | 30.6 | 0.00 | 0.00 | 0.00 | 49 | 1007.6 |
| 20260509163057 | 6 | 31 | 6.4 | 27.4 | 0.00 | 0.00 | 0.00 | 49 | 1007.5 |
| 20260509161552 | 6 | 5 | 8.0 | 29.0 | 0.00 | 0.00 | 0.00 | 49 | 1007.3 |
| 20260509160056 | 6 | 294 | 6.4 | 33.8 | 0.00 | 0.00 | 0.00 | 51 | 1007.1 |
| 20260509154557 | 5 | 21 | 12.9 | 30.6 | 0.00 | 0.00 | 0.00 | 50 | 1007.0 |
| 20260509153053 | 5 | 360 | 12.9 | 38.6 | 0.00 | 0.00 | 0.00 | 50 | 1006.8 |
| 20260509151552 | 5 | 30 | 14.5 | 33.8 | 0.00 | 0.00 | 0.00 | 51 | 1006.3 |
| 20260509150051 | 5 | 298 | 8.0 | 32.2 | 0.00 | 0.00 | 0.00 | 53 | 1006.0 |
| 20260509144551 | 5 | 304 | 11.3 | 27.4 | 0.00 | 0.00 | 0.00 | 52 | 1006.1 |
| 20260509143052 | 6 | 328 | 14.5 | 35.4 | 0.00 | 0.00 | 0.00 | 53 | 1005.9 |
| 20260509141603 | 6 | 15 | 8.0 | 33.8 | 0.00 | 0.00 | 0.00 | 52 | 1005.6 |
| 20260509140059 | 6 | 360 | 6.4 | 25.7 | 0.00 | 0.00 | 0.00 | 56 | 1005.4 |
| 20260509134552 | 5 | 12 | 6.4 | 29.0 | 0.00 | 0.00 | 0.00 | 60 | 1005.3 |
| 20260509133050 | 5 | 22 | 9.7 | 29.0 | 0.00 | 0.00 | 0.00 | 60 | 1005.0 |
| 20260509131551 | 5 | 24 | 4.8 | 22.5 | 0.00 | 0.00 | 0.00 | 58 | 1004.8 |
| 20260509130053 | 5 | 355 | 8.0 | 20.9 | 0.00 | 0.00 | 0.00 | 59 | 1004.6 |
| 20260509124556 | 5 | 263 | 4.8 | 19.3 | 0.00 | 0.00 | 0.00 | 57 | 1004.2 |
| 20260509123054 | 4 | 319 | 1.6 | 20.9 | 0.00 | 0.00 | 0.00 | 57 | 1003.9 |
| 20260509121552 | 3 | 350 | 3.2 | 14.5 | 0.00 | 0.00 | 0.00 | 57 | 1003.8 |
| 20260509120054 | 3 | 24 | 0.0 | 19.3 | 0.00 | 0.00 | 0.00 | 58 | 1003.5 |
| 20260509114557 | 3 | 329 | 0.0 | 12.9 | 0.00 | 0.00 | 0.00 | 57 | 1003.4 |
| 20260509113053 | 3 | 13 | 1.6 | 16.1 | 0.00 | 0.00 | 0.00 | 56 | 1003.2 |
| 20260509111551 | 3 | 18 | 1.6 | 11.3 | 0.00 | 0.00 | 0.00 | 57 | 1003.1 |
| 20260509110054 | 3 | 0 | 1.6 | 4.8 | 0.00 | 0.00 | 0.00 | 56 | 1003.0 |
| 20260509104554 | 3 | 0 | 0.0 | 6.4 | 0.00 | 0.00 | 0.00 | 57 | 1002.9 |
| 20260509103052 | 3 | 281 | 1.6 | 11.3 | 0.00 | 0.00 | 0.00 | 54 | 1002.8 |
| 20260509101555 | 3 | 344 | 1.6 | 9.7 | 0.00 | 0.00 | 0.00 | 52 | 1002.6 |
| 20260509100050 | 4 | 16 | 1.6 | 9.7 | 0.00 | 0.00 | 0.00 | 51 | 1002.6 |
| 20260509094549 | 4 | 257 | 1.6 | 9.7 | 0.00 | 0.00 | 0.00 | 50 | 1002.3 |
| 20260509093100 | 4 | 187 | 0.0 | 6.4 | 0.00 | 0.00 | 0.00 | 51 | 1002.3 |
| 20260509091557 | 4 | 5 | 1.6 | 8.0 | 0.00 | 0.00 | 0.00 | 49 | 1002.3 |
| 20260509090056 | 4 | 0 | 0.0 | 6.4 | 0.00 | 0.00 | 0.00 | 51 | 1002.1 |
| 20260509084556 | 3 | 0 | 0.0 | 4.8 | 0.00 | 0.00 | 0.00 | 51 | 1001.7 |
| 20260509083048 | 3 | 0 | 0.0 | 1.6 | 0.00 | 0.00 | 0.00 | 53 | 1001.5 |
| 20260509081555 | 4 | 0 | 0.0 | 3.2 | 0.00 | 0.00 | 0.00 | 50 | 1001.4 |
| 20260509080057 | 5 | 0 | 0.0 | 1.6 | 0.00 | 0.00 | 0.00 | 48 | 1001.2 |
| 20260509074556 | 5 | 0 | 0.0 | 3.2 | 0.00 | 0.00 | 0.00 | 47 | 1001.4 |